Grafton, ND

11:18 AM CST on February 19, 2017 (GMT -0600)
Grafton Municipal

Weather History for KGAF - April, 2014

Change the Weather History Date:

Wednesday, April 9, 2014

  Actual Average Record
Temperature  
Mean Temperature 48 °F -  
Max Temperature 64 °F 50 °F 83 °F (1977)
Min Temperature 32 °F 27 °F 8 °F (1960)
Degree Days  
Heating Degree Days 17    
Moisture  
Dew Point 37 °F    
Average Humidity 75    
Maximum Humidity 100    
Minimum Humidity 42    
Precipitation  
Precipitation 0.00 in - - ()
Sea Level Pressure  
Sea Level Pressure 29.51 in    
Wind  
Wind Speed 14 mph (SW)    
Max Wind Speed 28 mph    
Max Gust Speed 38 mph    
Visibility 10 miles    
Events      
Averages and records for this station are not official NWS values.
T = Trace of Precipitation, MM = Missing Value Source: NWS Daily Summary

Daily Weather History Graph

Daily Weather History Graph

Search for Another Location

Airport or City:

Trip Planner

Search our weather history database for the weather conditions in past years. The results will help you decide how hot, cold, wet, or windy it might be!

Date:

Astronomy

Apr. 09, 2014 Rise Set
Actual Time 6:51 AM CDT 8:11 PM CDT
Civil Twilight 6:18 AM CDT 8:44 PM CDT
Nautical Twilight 5:39 AM CDT 9:23 PM CDT
Astronomical Twilight 4:57 AM CDT 10:05 PM CDT
Moon 2:38 PM CDT (4/9) 4:05 AM CDT (4/9)
Length of Visible Light 14h 25m
Length of Day
13h 20m
Waxing Gibbous, 72% of the Moon is Illuminated
Apr 9
Waxing Gibbous
Apr 15
Full
Apr 22
Last Quarter
Apr 29
New
May 6
First Quarter

Hourly Weather History & Observations

Time (CDT) Temp. Windchill Dew Point Humidity Pressure Visibility Wind Dir Wind Speed Gust Speed Precip Events Conditions
12:15 AM 39.2 °F 30.5 °F 35.6 °F 87% 29.71 in 10.0 mi SSE 16.1 mph - N/A   Clear
12:35 AM 39.2 °F 30.5 °F 35.6 °F 87% 29.70 in 10.0 mi SSE 16.1 mph - N/A   Partly Cloudy
12:55 AM 39.2 °F 30.5 °F 35.6 °F 87% 29.68 in 10.0 mi SSE 16.1 mph 21.9 mph N/A   Partly Cloudy
1:15 AM 39.2 °F 29.8 °F 33.8 °F 81% 29.66 in 10.0 mi SSE 18.4 mph - N/A   Clear
1:35 AM 39.2 °F 31.2 °F 33.8 °F 81% 29.66 in 10.0 mi South 13.8 mph - N/A   Clear
1:55 AM 37.4 °F 28.5 °F 33.8 °F 87% 29.66 in 10.0 mi South 15.0 mph - N/A   Clear
2:15 AM 37.4 °F 29.3 °F 33.8 °F 87% 29.65 in 10.0 mi South 12.7 mph - N/A   Clear
2:35 AM 37.4 °F 28.9 °F 33.8 °F 87% 29.63 in 10.0 mi South 13.8 mph - N/A   Clear
2:55 AM 37.4 °F 29.3 °F 33.8 °F 87% 29.62 in 10.0 mi South 12.7 mph - N/A   Clear
3:15 AM 35.6 °F 27.5 °F 32.0 °F 87% 29.61 in 10.0 mi South 11.5 mph - N/A   Clear
3:35 AM 35.6 °F 27.5 °F 32.0 °F 87% 29.60 in 10.0 mi South 11.5 mph - N/A   Clear
3:55 AM 35.6 °F 27.5 °F 32.0 °F 87% 29.58 in 10.0 mi South 11.5 mph - N/A   Clear
4:15 AM 33.8 °F 25.3 °F 32.0 °F 93% 29.58 in 10.0 mi South 11.5 mph - N/A   Clear
4:35 AM 33.8 °F 25.3 °F 32.0 °F 93% 29.57 in 10.0 mi South 11.5 mph - N/A   Clear
4:55 AM 33.8 °F 25.8 °F 32.0 °F 93% 29.56 in 10.0 mi South 10.4 mph - N/A   Clear
5:15 AM 33.8 °F 26.4 °F 32.0 °F 93% 29.55 in 10.0 mi South 9.2 mph - N/A   Clear
5:35 AM 32.0 °F 23.0 °F 32.0 °F 100% 29.55 in 10.0 mi South 11.5 mph - N/A   Clear
5:55 AM 32.0 °F 23.0 °F 32.0 °F 100% 29.54 in 10.0 mi South 11.5 mph - N/A   Clear
6:15 AM 32.0 °F 23.0 °F 32.0 °F 100% 29.54 in 10.0 mi South 11.5 mph - N/A   Clear
6:35 AM 32.0 °F 24.8 °F 32.0 °F 100% 29.53 in 10.0 mi South 8.1 mph - N/A   Clear
6:55 AM 32.0 °F 25.6 °F 32.0 °F 100% 29.53 in 10.0 mi SSE 6.9 mph - N/A   Clear
7:15 AM 32.0 °F 27.5 °F 32.0 °F 100% 29.53 in 10.0 mi SSE 4.6 mph - N/A   Clear
7:35 AM 32.0 °F 28.7 °F 32.0 °F 100% 29.54 in 10.0 mi East 3.5 mph - N/A   Clear
7:55 AM 32.0 °F 25.6 °F 32.0 °F 100% 29.53 in 10.0 mi SE 6.9 mph - N/A   Clear
8:15 AM 35.6 °F 29.9 °F 33.8 °F 93% 29.53 in 10.0 mi SSE 6.9 mph - N/A   Clear
8:35 AM 35.6 °F 29.9 °F 35.6 °F 100% 29.53 in 10.0 mi SSE 6.9 mph - N/A   Clear
8:55 AM 37.4 °F 31.4 °F 35.6 °F 93% 29.52 in 10.0 mi SSE 8.1 mph - N/A   Clear
9:15 AM 39.2 °F 33.0 °F 35.6 °F 87% 29.52 in 10.0 mi SSE 9.2 mph - N/A   Clear
9:35 AM 41.0 °F 35.2 °F 37.4 °F 87% 29.51 in 10.0 mi SSE 9.2 mph - N/A   Clear
9:55 AM 41.0 °F 35.2 °F 37.4 °F 87% 29.50 in 10.0 mi SSE 9.2 mph - N/A   Clear
10:15 AM 44.6 °F 39.7 °F 39.2 °F 81% 29.49 in 10.0 mi SSE 9.2 mph - N/A   Clear
10:55 AM 48.2 °F - 39.2 °F 71% 29.48 in 10.0 mi South 9.2 mph - N/A   Clear
11:15 AM 50.0 °F - 41.0 °F 71% 29.47 in 10.0 mi South 8.1 mph - N/A   Clear
11:35 AM 51.8 °F - 41.0 °F 67% 29.45 in 10.0 mi South 9.2 mph - N/A   Clear
11:55 AM 53.6 °F - 42.8 °F 67% 29.44 in 10.0 mi South 10.4 mph - N/A   Clear
12:15 PM 55.4 °F - 44.6 °F 67% 29.43 in 10.0 mi South 11.5 mph - N/A   Clear
12:35 PM 55.4 °F - 44.6 °F 67% 29.42 in 10.0 mi SSW 13.8 mph - N/A   Clear
12:55 PM 57.2 °F - 44.6 °F 63% 29.41 in 10.0 mi SSW 13.8 mph 19.6 mph N/A   Clear
1:15 PM 57.2 °F - 46.4 °F 67% 29.41 in 10.0 mi SW 15.0 mph - N/A   Clear
1:35 PM 57.2 °F - 44.6 °F 63% 29.40 in 10.0 mi SW 13.8 mph 18.4 mph N/A   Clear
1:55 PM 59.0 °F - 44.6 °F 59% 29.40 in 10.0 mi SW 16.1 mph - N/A   Clear
2:15 PM 59.0 °F - 46.4 °F 63% 29.39 in 10.0 mi North - - N/A   Partly Cloudy
2:35 PM 60.8 °F - 44.6 °F 55% 29.38 in 10.0 mi SW 12.7 mph 16.1 mph N/A   Clear
2:55 PM 60.8 °F - 46.4 °F 59% 29.38 in 10.0 mi WSW 16.1 mph - N/A   Clear
3:15 PM 59.0 °F - 46.4 °F 63% 29.38 in 10.0 mi West 12.7 mph - N/A   Clear
3:35 PM 59.0 °F - 48.2 °F 67% 29.37 in 10.0 mi West 13.8 mph - N/A   Clear
3:55 PM 59.0 °F - 48.2 °F 67% 29.37 in 10.0 mi West 13.8 mph - N/A   Clear
4:15 PM 60.8 °F - 48.2 °F 63% 29.37 in 10.0 mi West 17.3 mph - N/A   Clear
4:35 PM 62.6 °F - 46.4 °F 55% 29.37 in 10.0 mi West 16.1 mph - N/A   Clear
4:55 PM 64.4 °F - 41.0 °F 42% 29.39 in 10.0 mi WNW 25.3 mph 34.5 mph N/A   Partly Cloudy
5:15 PM 59.0 °F - 44.6 °F 59% 29.41 in 10.0 mi NW 25.3 mph 38.0 mph N/A   Clear
5:35 PM 57.2 °F - 41.0 °F 55% 29.41 in 10.0 mi WNW 16.1 mph 26.5 mph N/A   Clear
5:55 PM 55.4 °F - 39.2 °F 54% 29.42 in 10.0 mi WNW 27.6 mph 35.7 mph N/A   Clear
6:15 PM 53.6 °F - 39.2 °F 58% 29.43 in 10.0 mi NW 27.6 mph 34.5 mph N/A   Clear
6:35 PM 51.8 °F - 39.2 °F 62% 29.45 in 10.0 mi NW 23.0 mph 31.1 mph N/A   Partly Cloudy
6:55 PM 51.8 °F - 39.2 °F 62% 29.47 in 10.0 mi NW 27.6 mph 36.8 mph N/A   Partly Cloudy
7:15 PM 50.0 °F - 39.2 °F 66% 29.48 in 10.0 mi NW 21.9 mph 35.7 mph N/A   Clear
7:35 PM 50.0 °F - 37.4 °F 62% 29.50 in 10.0 mi NW 25.3 mph 29.9 mph N/A   Clear
7:55 PM 48.2 °F - 37.4 °F 66% 29.51 in 10.0 mi WNW 20.7 mph 29.9 mph N/A   Clear
8:15 PM 46.4 °F 39.0 °F 35.6 °F 66% 29.52 in 10.0 mi WNW 19.6 mph 25.3 mph N/A   Clear
8:35 PM 46.4 °F 39.0 °F 35.6 °F 66% 29.53 in 10.0 mi WNW 19.6 mph 27.6 mph N/A   Clear
8:55 PM 46.4 °F 39.2 °F 32.0 °F 57% 29.54 in 10.0 mi NW 18.4 mph 27.6 mph N/A   Clear
9:15 PM 44.6 °F 36.6 °F 32.0 °F 61% 29.56 in 10.0 mi WNW 19.6 mph - N/A   Clear
9:35 PM 44.6 °F 37.2 °F 32.0 °F 61% 29.56 in 10.0 mi WNW 17.3 mph 23.0 mph N/A   Clear
9:55 PM 44.6 °F 36.9 °F 32.0 °F 61% 29.57 in 10.0 mi WNW 18.4 mph 21.9 mph N/A   Clear
10:15 PM 42.8 °F 34.8 °F 32.0 °F 66% 29.58 in 10.0 mi WNW 17.3 mph 21.9 mph N/A   Clear
10:35 PM 42.8 °F 35.1 °F 32.0 °F 66% 29.59 in 10.0 mi WNW 16.1 mph - N/A   Clear
10:55 PM 41.0 °F 34.3 °F 32.0 °F 70% 29.60 in 10.0 mi West 11.5 mph - N/A   Clear
11:15 PM 41.0 °F 33.5 °F 32.0 °F 70% 29.60 in 10.0 mi West 13.8 mph - N/A   Clear
11:35 PM 41.0 °F 33.1 °F 32.0 °F 70% 29.60 in 10.0 mi West 15.0 mph 18.4 mph N/A   Clear
11:55 PM 41.0 °F 33.9 °F 30.2 °F 65% 29.60 in 10.0 mi West 12.7 mph 18.4 mph N/A   Clear